Regional Weather Roundup
Issued by NWS Glasgow, MT

Home | Current Version | Previous Version | Text Only | Print | Product List | Glossary On
Versions: 1 2 3 4 5 6 7 8 9 10 11 12 13 14 15 16 17 18 19 20 21 22 23 24 25 26 27 28 29 30 31 32 33 34 35 36 37 38 39 40 41 42 43 44 45 46 47 48 49 50
000
ASUS45 KGGW 281315
RWRGGW
HOURLY REGIONAL WEATHER ROUNDUP FOR NORTHEAST MONTANA
NATIONAL WEATHER SERVICE GLASGOW MONTANA
700 AM MDT TUE MAR 28 2017

NOTE: "FAIR" INDICATES FEW OR NO CLOUDS BELOW 12,000 FEET WITH NO
SIGNIFICANT WEATHER AND/OR OBSTRUCTIONS TO VISISBILITY.

NORTHEAST MONTANA


CITY           SKY/WX    TMP DP  RH WIND       PRES   REMARKS
GLASGOW        MOCLDY    33  31  92 W3        30.04R
PLENTYWOOD       N/A     34  33  96 E8          N/A
WOLF POINT     FOG       36  35  96 E9        30.05R VSB 1/2
JORDAN           N/A     36  32  85 CALM      30.04R
WINNETT          N/A     45  33  63 W12G21      N/A
SIDNEY         CLOUDY    38  36  92 NW5       30.03  FOG
GLENDIVE       CLOUDY    35  34  96 NW6       30.02R
MALTA            N/A     34  33  96 SW3         N/A
SCOBEY         HAZE      34  28  79 CALM      30.02R VSB 3/4

FORT PECK REPORTS


CITY           SKY/WX    TMP DP  RH WIND       PRES   REMARKS
FORT PECK        N/A     33  33 100 NE8G16      N/A
THE PINES        N/A     35  33  92 CALM        N/A

SOUTHEAST MONTANA


CITY           SKY/WX    TMP DP  RH WIND       PRES   REMARKS
BILLINGS       LGT RAIN  40  38  93 W8        30.09R
MILES CITY     CLOUDY    41  36  82 NW8       30.00R
BAKER          CLOUDY    36  32  85 SE8       30.01R
LIVINGSTON     CLOUDY    35  24  64 W8        30.15R

CENTRAL MONTANA


CITY           SKY/WX    TMP DP  RH WIND       PRES   REMARKS
HAVRE          PTCLDY    35  27  72 SW12      30.06R
LEWISTOWN      CLOUDY    36  29  75 NW5       30.09S
GREAT FALLS    CLEAR     32  24  72 SW14      30.09R
CUT BANK       CLEAR     35  24  64 W21       30.03S
HELENA         CLEAR     37  26  64 W6        30.15R
BUTTE          PTCLDY    25  20  81 CALM      30.17R
BOZEMAN        CLOUDY    33  24  69 SW5       30.17S

WESTERN MONTANA


CITY           SKY/WX    TMP DP  RH WIND       PRES   REMARKS
MISSOULA       PTCLDY    32  30  92 CALM      30.22S
KALISPELL      NOT AVBL

NORTH DAKOTA


CITY           SKY/WX    TMP DP  RH WIND       PRES   REMARKS
WILLISTON      CLOUDY    37  35  92 NE3       30.05R
DICKINSON      CLOUDY    29  28  96 E6        30.02R
MINOT          FOG       34  34 100 E8        30.10R VSB<1/4
BISMARCK       FOG       32  32 100 NE5       30.10R VSB 1/4

SOUTHERN SASKATCHEWAN


CITY           SKY/WX    TMP DP  RH WIND       PRES   REMARKS
REGINA         CLOUDY    32  30  93 SE9       30.11R
MOOSE JAW      FOG       32  32 100 SE10      30.09R VSB 3/8
ESTEVAN        CLOUDY    32  32 100 E13       30.10R FOG
SWIFT CURRENT  CLOUDY    36  32  87 S9        29.98S




USA.gov is the U.S. government's official web portal to all federal, state and local government web resources and services.